Location: Unspecified
(0.0000°N, 0.0000°E)
Time: 07:48:46
(UTC+00:00)

Daily predictions for brighter satellites

Satellite Brightness Start Highest point End
(mag) Time Altitude Azimuth Time Altitude Azimuth Time Altitude Azimuth
Abrixas 3.8 18:29:13 10° SW 18:32:09 44° NW 18:35:04 10° NNE
FREGAT/IRIS 4.3 18:31:09 10° ESE 18:33:18 17° E 18:35:27 10° NE
Cosmos 1356 Rocket 4.3 18:30:18 10° SSE 18:33:51 28° E 18:37:27 10° NE
Ariane H10 2.3 18:34:53 10° W 18:37:14 65° S 18:43:48 10° E
SJ-6B 3.4 18:34:21 10° SSE 18:38:13 40° ENE 18:42:00 10° N
IDEFIX/ARIANE 42P 3.2 18:33:45 10° S 18:38:55 60° WSW 18:44:03 10° NNW
Cosmos 1869 3.3 18:37:47 10° N 18:41:44 86° W 18:45:41 10° S
Cosmos 1455 3.0 18:38:22 10° NNW 18:42:10 56° W 18:45:59 10° S
Cosmos 1943 4.0 18:38:20 10° NNE 18:43:14 31° ENE 18:48:09 10° SE
Cosmos 494 Rocket 4.4 18:40:11 10° N 18:45:05 43° ENE 18:49:57 10° SSE
GPS 2-15 Rocket1 4.4 18:43:26 10° W 18:47:54 33° SSW 18:52:11 11° SE
Sylda 5 2.3 18:48:54 10° W 18:52:20 80° N 18:58:32 10° E
CZ-4C R/B 3.4 18:51:16 10° NNW 18:59:05 68° WSW 19:06:53 10° SSE
Resurs 01 Rocket 2.1 18:56:23 10° SSE 19:00:31 40° ENE 19:04:37 10° N
USA 234 4.4 19:02:00 17° ESE 19:03:29 18° SE 19:07:43 10° S
Meteor 2-3 Rocket 4.2 19:00:15 10° SSW 19:05:53 64° W 19:11:26 10° N
GPS 2-18 Rocket1 4.3 19:04:14 10° NW 19:07:30 29° NNE 19:09:17 20° ENE
Cosmos 389 Rocket 2.3 19:04:01 10° N 19:07:31 77° E 19:11:06 10° S
ARIANE 5 DEB (SYLDA) 3.3 19:03:19 10° W 19:08:18 72° N 19:10:57 19° ENE
TIMED 4.4 19:04:36 10° S 19:08:57 74° ESE 19:13:17 10° NNE
Ariane H10-3 3.4 18:45:58 10° W 19:10:01 64° S 19:12:47 25° ESE
Cosmos 1452 Rocket 3.4 19:10:40 10° S 19:15:55 76° ESE 19:21:09 10° NNE
Cosmos 1703 Rocket 3.6 19:12:07 10° N 19:16:35 87° W 19:21:03 10° S
CENTAUR R/B 4.4 19:12:28 10° NNE 19:17:47 18° ENE 19:19:13 18° ENE
OAO 1 4.4 19:14:16 10° SW 19:19:45 72° SE 19:23:45 19° ENE
GPS 2-04 Rocket1 3.6 19:19:50 10° SSW 19:23:26 33° SSE 19:23:26 33° SSE
Cosmos 1733 Rocket 3.0 19:20:33 10° S 19:25:01 87° W 19:29:25 10° N
NOSS 3-2 (C) 4.1 19:17:23 10° NNW 19:25:31 86° WSW 19:32:48 14° SSE
NOSS 3-2 (A) 4.4 19:19:48 10° NNW 19:27:50 66° WSW 19:35:50 10° SSE
deb Ariane 3.7 19:28:14 10° WSW 19:29:41 22° SW 19:29:41 22° SW
Cosmos 2184 Rocket 4.0 19:25:27 10° S 19:31:38 82° W 19:37:46 10° N
ARIANE 5 R/B 2.4 19:30:37 10° W 19:33:28 84° N 19:36:47 32° E
SWIFT 3.3 19:29:25 10° W 19:33:30 43° NNW 19:35:32 25° NE
XTE 4.5 19:31:43 10° W 19:34:31 32° NNW 19:35:01 30° N
Meteor 1-26 Rocket 4.2 19:29:40 10° N 19:35:34 89° E 19:40:44 14° S
Coronas F rocket 4.3 19:36:48 10° SW 19:38:38 17° W 19:40:30 10° NW
Lacrosse 5 2.4 19:36:06 10° SSW 19:39:42 39° SSE 19:39:42 39° SSE
Lacrosse 5 rocket 1.2 19:39:01 10° SSW 19:43:24 86° ESE 19:43:40 78° NE
Helios 1A 4.3 19:41:11 11° S 19:44:53 37° WSW 19:48:44 10° NW
FengYun 1-2 T 4.2 19:46:18 33° SSE 19:48:59 89° W 19:54:36 10° NNW
Resurs 1-3 4.1 19:47:25 30° SSW 19:49:22 56° WSW 19:53:39 10° NNW
USA 215 3.5 19:51:54 44° ENE 19:52:49 47° NE 19:59:01 10° NNW
ATLAS 5 CENTAUR R/B 3.9 19:51:36 10° NNE 19:54:57 22° NE 19:54:57 22° NE
Ariane H10+ 3.7 19:54:01 10° WNW 19:58:54 64° NNE 20:08:09 31° E
Ariane H10+ 3.7 19:54:00 10° WNW 19:58:54 64° NNE 20:08:09 31° E
Ariane H10+ 3.7 19:54:00 10° WNW 19:58:54 64° NNE 20:08:08 31° E
Cosmos 2278 Rocket 3.9 19:59:29 10° SW 20:04:25 31° WNW 20:09:21 10° NNW
FENGYUN 3A 3.6 20:07:25 75° N 20:07:25 75° N 20:12:20 10° NNW
Ariane H10 4.3 19:59:58 10° W 20:17:44 62° SSW 20:18:56 58° SSE
Aurora 2 Rocket 4.0 20:10:26 10° WSW 20:20:20 78° NNW 20:21:47 62° NE
ALOS 3.6 20:22:26 38° NW 20:22:26 38° NW 20:25:35 10° NNW
Meteor 2-10 Rocket 4.2 20:17:22 10° NNW 20:21:55 55° NW 20:21:55 55° NW
ARIANE 5 R/B 4.1 20:28:03 10° W 21:06:57 - E 20:30:23 48° WSW
ARIANE 5 R/B 4.1 20:28:02 10° W 21:06:58 - E 20:30:24 48° WSW
ARIANE 5 R/B 4.1 20:28:03 10° W 21:06:58 - E 20:30:23 48° WSW
ARIANE 5 R/B 4.1 20:28:02 10° W 20:30:23 47° WSW 20:30:23 47° WSW
ARIANE 5 R/B 4.1 20:28:02 10° W 21:06:58 - E 20:30:23 48° WSW
CENTAUR R/B 3.8 21:00:16 10° NNW 21:06:27 50° WNW 21:06:27 50° WNW
Milstar 3 Cent rocket 3.9 21:02:17 10° WSW 21:13:31 56° W 21:13:31 56° W
ARIANE 5 R/B 4.5 12:37:58 10° W 21:26:53 85° NNW 21:26:53 85° NNW
